User: anonymous   Login
Location: ??
(35.5052°N, 139.7262°E)
Time: 06:49:03
(UTC+00:00)
Language:

CZ-4 R/B - Orbit

View from above orbital plane
View from above orbital plane
View from above satellite
View from above satellite

Ground track
Ground track

The orbit data is extracted from the following two-line orbital elements,

1 28059U 03049C   21265.51305325  .00000055  00000-0  24988-4 0  9995
2 28059  98.4945 193.4978 0050270 164.7926 195.4794 14.52668910949918
Epoch (UTC): 22 September 2021 12:18:47
Eccentricity: 0.0050270
inclination: 98.4945°
perigee height: 681 km
apogee height: 752 km
right ascension of ascending node: 193.4978°
argument of perigee: 164.7926°
revolutions per day: 14.52668910
mean anomaly at epoch: 195.4794°
orbit number at epoch: 94991

The dashed part of the orbit path shows where the satellite is in the earth's shadow,  

DLR